KK4MOR Weather Reports


Display with metric or nautical units.
time (UTC)temp
F
wind
direction
speed
MPH
gust
MPH
rain 1hr
in
rain 24hr
in
rain mn
in
humidity
%
barometer
mb
20260906031532 73 302 0.0 0.0 0.00 0.09 0.09 96 1010.0
20260906030017 73 302 0.0 0.0 0.00 0.09 0.09 95 1009.8
20260906024517 73 302 0.0 0.0 0.00 0.09 0.09 95 1009.6
20260906023017 74 302 0.0 0.0 0.00 0.09 0.09 94 1009.5
20260906021518 75 302 0.0 0.0 0.00 0.09 0.09 94 1009.1
20260906020015 75 302 0.0 0.0 0.00 0.09 0.09 95 1008.9
20260906014522 74 299 0.0 0.0 0.00 0.09 0.09 95 1008.8
20260906013014 74 176 0.0 0.0 0.00 0.09 0.09 95 1008.2
20260906011514 74 176 0.0 0.0 0.00 0.09 0.09 94 1008.5
20260906010013 75 176 0.0 0.0 0.00 0.09 0.09 94 1008.8
20260906004512 75 176 0.0 0.0 0.00 0.09 0.09 94 1008.8
20260906003012 76 176 0.0 0.0 0.00 0.09 0.09 93 1008.8
20260906001513 76 176 0.0 0.0 0.00 0.09 0.09 93 1008.7
20260906000011 76 113 0.0 0.0 0.00 0.09 0.09 92 1008.7
20260905234511 76 113 0.0 0.0 0.00 0.09 0.09 91 1008.9
20260905233010 77 360 0.0 1.0 0.00 0.09 0.09 93 1008.6
20260905231510 78 175 0.0 0.0 0.00 0.09 0.09 94 1008.3
20260905230009 79 178 0.0 0.0 0.09 0.09 0.09 92 1008.4
20260905224510 78 178 0.0 0.0 0.09 0.09 0.09 92 1008.1
20260905223008 77 178 0.0 0.0 0.09 0.09 0.09 91 1008.0
20260905221506 78 207 0.0 0.0 0.09 0.09 0.09 86 1008.9
20260905220005 85 311 0.0 2.0 0.00 0.00 0.00 66 1009.2
20260905214503 91 173 0.0 5.0 0.00 0.00 0.00 56 1009.1
20260905213004 96 236 0.0 0.0 0.00 0.00 0.00 56 1008.4
20260905211502 96 235 0.0 0.0 0.00 0.00 0.00 50 1008.4
20260905210002 96 244 0.0 0.0 0.00 0.00 0.00 49 1008.4
20260905204600 96 256 0.0 0.0 0.00 0.00 0.00 49 1008.2
20260905203059 97 334 0.0 0.0 0.00 0.00 0.00 50 1008.5
20260905201556 96 334 0.0 0.0 0.00 0.00 0.00 50 1008.7
20260905200116 96 42 0.0 0.0 0.00 0.00 0.00 51 1008.9
20260905194551 95 5 0.0 0.0 0.00 0.00 0.00 56 1009.1
20260905193047 95 326 0.0 0.0 0.00 0.00 0.00 57 1009.6
20260905191546 94 309 0.0 0.0 0.00 0.00 0.00 57 1009.8
20260905190051 94 301 0.0 0.0 0.00 0.00 0.00 56 1009.9
20260905184541 94 33 0.0 0.0 0.00 0.00 0.00 60 1009.9
20260905183038 93 325 0.0 0.0 0.00 0.00 0.00 58 1010.1
20260905181535 93 338 0.0 0.0 0.00 0.00 0.00 62 1010.4
20260905180047 92 323 0.0 0.0 0.00 0.00 0.00 59 1010.6
20260905174531 92 337 0.0 2.0 0.00 0.00 0.00 65 1010.7
20260905173028 92 323 0.0 1.0 0.00 0.00 0.00 62 1010.8
20260905171540 91 355 0.0 0.0 0.00 0.00 0.00 63 1010.8
20260905170025 90 24 0.0 0.0 0.00 0.00 0.00 67 1011.1
20260905164521 90 332 0.0 1.0 0.00 0.00 0.00 65 1011.3
20260905163019 89 324 0.0 0.0 0.00 0.00 0.00 66 1011.4
20260905161524 89 148 0.0 0.0 0.00 0.00 0.00 69 1011.6
20260905160019 89 148 0.0 0.0 0.00 0.00 0.00 69 1011.7
20260905154512 88 148 0.0 0.0 0.00 0.00 0.00 70 1011.7
20260905153009 87 148 0.0 0.0 0.00 0.00 0.00 71 1011.7
20260905151506 86 148 0.0 0.0 0.00 0.00 0.00 76 1011.8
20260905150004 85 148 0.0 0.0 0.00 0.00 0.00 75 1011.9
20260905144558 83 148 0.0 0.0 0.00 0.00 0.00 82 1012.0
20260905143055 82 148 0.0 0.0 0.00 0.00 0.00 87 1012.0
20260905141549 80 148 0.0 0.0 0.00 0.00 0.00 87 1012.0
20260905140048 79 148 0.0 0.0 0.00 0.00 0.00 93 1012.0
20260905134547 78 148 0.0 0.0 0.00 0.00 0.00 95 1011.9
20260905133041 77 148 0.0 0.0 0.00 0.00 0.00 97 1012.1
20260905131538 76 163 0.0 0.0 0.00 0.00 0.00 98 1012.2
20260905130034 75 163 0.0 0.0 0.00 0.00 0.00 98 1012.2
20260905124531 74 159 0.0 0.0 0.00 0.00 0.00 98 1012.2
20260905123029 72 159 0.0 0.0 0.00 0.00 0.00 98 1012.1
20260905121528 72 159 0.0 0.0 0.00 0.00 0.00 98 1012.1
20260905120037 71 159 0.0 0.0 0.00 0.00 0.00 98 1012.0
20260905114525 71 159 0.0 0.0 0.00 0.00 0.00 97 1011.7
20260905113024 71 159 0.0 0.0 0.00 0.00 0.00 97 1011.8
20260905111537 71 159 0.0 0.0 0.00 0.00 0.00 97 1011.6
20260905110023 71 159 0.0 0.0 0.00 0.00 0.00 97 1011.3
20260905104519 71 159 0.0 0.0 0.00 0.00 0.00 97 1011.1
20260905103026 71 159 0.0 0.0 0.00 0.00 0.00 97 1011.0
20260905101518 71 159 0.0 0.0 0.00 0.00 0.00 96 1010.9
20260905100016 72 159 0.0 0.0 0.00 0.00 0.00 97 1011.0
20260905094516 71 159 0.0 0.0 0.00 0.00 0.00 97 1010.8
20260905093015 71 159 0.0 0.0 0.00 0.00 0.00 97 1010.8
20260905091514 71 159 0.0 0.0 0.00 0.00 0.00 97 1010.6
20260905090013 71 159 0.0 0.0 0.00 0.00 0.00 97 1010.6
20260905084512 71 159 0.0 0.0 0.00 0.00 0.00 97 1010.6
20260905083112 71 159 0.0 0.0 0.00 0.00 0.00 96 1010.8
20260905081509 72 159 0.0 0.0 0.00 0.00 0.00 96 1010.8
20260905080008 72 159 0.0 0.0 0.00 0.00 0.00 96 1010.7
20260905074507 72 159 0.0 0.0 0.00 0.00 0.00 96 1010.9
20260905073005 72 159 0.0 0.0 0.00 0.00 0.00 96 1011.0
20260905071504 72 159 0.0 0.0 0.00 0.00 0.00 96 1010.9
20260905070004 72 159 0.0 0.0 0.00 0.00 0.00 96 1011.1
20260905064501 73 159 0.0 0.0 0.00 0.00 0.00 96 1010.9
20260905063102 73 159 0.0 0.0 0.00 0.00 0.00 96 1011.0
20260905061559 73 159 0.0 0.0 0.00 0.00 0.00 95 1010.9
20260905060057 73 159 0.0 0.0 0.00 0.00 0.00 95 1011.0
20260905054557 73 159 0.0 0.0 0.00 0.00 0.00 95 1011.0
20260905053059 73 159 0.0 0.0 0.00 0.00 0.00 95 1011.0
20260905051553 74 159 0.0 0.0 0.00 0.00 0.00 94 1011.2
20260905050056 74 159 0.0 0.0 0.00 0.00 0.00 94 1011.2
20260905044550 75 159 0.0 0.0 0.00 0.00 0.00 95 1011.2
20260905043050 75 159 0.0 0.0 0.00 0.00 0.00 94 1011.3
20260905041555 75 159 0.0 0.0 0.00 0.00 0.00 94 1011.4
20260905040049 75 159 0.0 0.0 0.00 0.00 0.00 93 1011.5
20260905034548 76 159 0.0 0.0 0.00 0.00 0.00 92 1011.4
20260905033047 76 159 0.0 0.0 0.00 0.00 0.00 92 1011.5